カタログに戻る

OTTER PUP 2

運用中科学SSO
NORAD 64537·PAYLOAD·🇺🇸 United States

打ち上げ Jun 23, 2025 から Vandenberg Space Force Base

Loading…

次のパス (今後24時間)

TLE

最新Source: Space-Track

元期: Sep 14, 2026, 02:49 UTC

1 64537U 25135K   26257.11775107  .00000308  00000-0  15879-4 0  9997
2 64537  97.4807  12.2734 0002509 196.9714 163.1439 15.23532260 68419

AllMySatでOTTER PUP 2をリアルタイム追跡

Download on the App Store